Location: *
(31.2983°S, 151.4094°E)
Time: 13:01:17
(UTC+00:00)

Cosmos 2297 - Pass Details

Date: 23 November 2019
Orbit: 835 x 859 km, 71.0° (Epoch: 13 December)

Event Time Altitude Azimuth Distance (km) Brightness Sun altitude
Exits shadow 15:42:06 10° 234° (SW) 2,445 6.1 -30.7°
Drops below altitude 10° 15:42:50 10° 226° (SW) 2,469 6.2 -30.6°
Sets 15:48:06 0° 185° (S) 3,413 7.5 -30.0°
